Regional Weather Roundup
Issued by NWS

Home | Current Version | Previous Version | Graphics & Text | Print | Product List | Glossary On
Versions: 1 2 3 4 5 6 7 8 9 10 11 12 13 14 15 16 17 18 19 20 21 22 23 24 25 26 27 28 29 30 31 32 33 34 35 36 37 38 39 40 41 42 43 44 45 46 47 48 49 50
487
ASUS43 KMKX 211700
RWRWI

WISCONSIN REGIONAL WEATHER ROUNDUP
NATIONAL WEATHER SERVICE MILWAUKEE/SULLIVAN WI
1200 PM CDT THU SEP 21 2017

NOTE: "FAIR" INDICATES FEW OR NO CLOUDS BELOW 12,000 FEET WITH NO
SIGNIFICANT WEATHER AND/OR OBSTRUCTIONS TO VISIBILITY.

WIZ001-002-006>008-014>016-023>028-211800-
NORTHWEST WISCONSIN

CITY           SKY/WX    TMP DP  RH WIND       PRES   REMARKS
SUPERIOR ARPT  SUNNY     63  56  79 NE12      30.01F
ASHLAND        SUNNY     67  57  70 N8        30.02F
HAYWARD        SUNNY     72  57  59 SE9G18    30.00F
SIREN          SUNNY     72  54  53 S13       29.98F
CUMBERLAND     SUNNY     70  55  60 SE9       29.99F
RICE LAKE      SUNNY     73  57  57 SE8       30.00F
CHETEK         SUNNY     71  60  69 SE7       29.99F
LADYSMITH      SUNNY     73  60  63 E8        30.02F
EAU CLAIRE     NOT AVBL
MENOMONIE      SUNNY     72  61  68 E9        29.98F
NEW RICHMOND   SUNNY     72  56  55 SE10G16   29.97F
OSCEOLA        SUNNY     74  56  54 SE14      29.99F
$$

WIZ003>005-009-010-017-018-211800-
NORTH CENTRAL WISCONSIN

CITY           SKY/WX    TMP DP  RH WIND       PRES   REMARKS
MANITOWISH WTR SUNNY     69  62  79 SE5       30.05F
ARBOR VITAE    SUNNY     72  64  74 SE6       30.05F
WOODRUFF       SUNNY     72  64  74 SE6       30.05F
RHINELANDER    MOSUNNY   72  65  78 SE9       30.05F
EAGLE RIVER    SUNNY     72  59  63 E7        30.05F
LAND O LAKES   MOSUNNY   71  58  63 SE7       30.08F
PHILLIPS       SUNNY     71  63  75 SE9       30.02F
TOMAHAWK       SUNNY     74  63  69 CALM      30.04F
MEDFORD        PTSUNNY   72  64  76 SE8       30.02F
MERRILL        PTSUNNY   73  64  73 SE8       30.04F
$$

WIZ029-030-035-036-043>047-211800-
CENTRAL WISCONSIN

CITY           SKY/WX    TMP DP  RH WIND       PRES   REMARKS
WAUSAU         MOSUNNY   74  65  73 SE10      30.01F
MOSINEE        PTSUNNY   73  66  78 SE8       30.03F
MARSHFIELD     CLOUDY    70  66  87 SE12      30.02S FOG
STEVENS POINT  CLOUDY    68  67  96 E7        30.03F
WAUPACA        CLOUDY    71  71  99 E6        30.03F FOG
WAUTOMA        CLOUDY    70  69  97 E3        30.03S FOG
WISC RAPIDS    CLOUDY    69  32  25 SE9       30.04S FOG
CAMP DOUGLAS   NOT AVBL
$$

WIZ011>013-019>022-031-037>040-048>050-211800-
NORTHEAST WISCONSIN

CITY           SKY/WX    TMP DP  RH WIND       PRES   REMARKS
ANTIGO         SUNNY     73  65  77 SE10      30.06S
SHAWANO        CLOUDY    74  67  77 NE6       30.03F
OCONTO         CLOUDY    71  65  83 NE7       30.03F
STURGEON BAY   CLOUDY    72  67  84 CALM      30.05S
GREEN BAY      CLOUDY    72  68  87 NE6       30.04S
MANITOWOC      CLOUDY    77  69  76 SE12      30.04S
APPLETON       CLOUDY    72  70  94 NE6       30.02F FOG
CLINTONVILLE   NOT AVBL
OSHKOSH        CLOUDY    74  69  85 VRB5      30.02F
$$

WIZ032>034-041-042-053>061-211800-
SOUTHWEST WISCONSIN

CITY           SKY/WX    TMP DP  RH WIND       PRES   REMARKS
LA CROSSE      NOT AVBL
SPARTA         CLOUDY    67  62  86 E6        29.99F
VIROQUA        CLOUDY    75  69  80 SE8       30.01F
BOSCOBEL       CLOUDY    82  66  58 S6        29.98F HX  84
PRAIRIE DU CHI CLOUDY    78  64  61 SE3       29.97F HX  80
PLATTEVILLE    PTSUNNY   77  69  77 SE10      30.01F
$$

WIZ056-057-062-063-064-067-068-211800-
SOUTH CENTRAL WISCONSIN

CITY           SKY/WX    TMP DP  RH WIND       PRES   REMARKS
REEDSBURG      CLOUDY    75  71  87 E5        30.01F
BARABOO/DELLS  CLOUDY    75  69  82 SE5       30.02F
LONE ROCK      NOT AVBL
MINERAL POINT  PTSUNNY   79  72  78 SE6       30.03S HX  82
MADISON        PTSUNNY   76  70  82 S6        30.03S
MIDDLETON      PTSUNNY   76  75  96 E7        30.04S
WATERTOWN      CLOUDY    77  72  84 CALM      30.03R
MONROE         CLOUDY    75  66  73 E3        30.04S
JANESVILLE     PTSUNNY   88  63  42 SE7       30.02S HX  88
$$

WIZ051-052-058>065-066-070>072-211800-
SOUTHEAST WISCONSIN

CITY           SKY/WX    TMP DP  RH WIND       PRES   REMARKS
MILWAUKEE      CLOUDY    79  69  71 SE6       30.03S HX  81
WAUKESHA       MOSUNNY   79  66  65 NE5       30.05S HX  81
MILWAUKEE/TIMM SUNNY     81  64  57 CALM      30.04S HX  82
RACINE         CLOUDY    82  69  64 E3        30.04F HX  85
BURLINGTON     CLOUDY    87  65  48 SE6       30.02F HX  89
KENOSHA        MOSUNNY   86  68  54 E7        30.03F HX  89
FOND DU LAC    CLOUDY    79  68  69 SE8       30.03S HX  81
SHEBOYGAN      CLOUDY    78  68  71 E8        30.03S HX  80
WEST BEND        N/A     79  70  73 CALM      30.03F HX  81
JUNEAU         CLOUDY    76  70  80 SE5       30.05S
$$

LSZ147-162-211800-
LAKE SUPERIOR

STATION/POSITION TIME  TEMP    WIND        PRES    WAVE
                       AIR SEA DIR/SP/G            HT/PER
                 (UTC) (F)     (DEG/KT/KT) (MB)    (FT/S)
W MID LAKE BUOY  1550   55 55   60/  6/  6 1017.9R   1
DEVILS ISLAND    1600   59      40/  7/  7 1017.5F
PORT WING        1640   75      30/ 13/ 16 1016.6F
SAXON HARBOR     1640   62      10/  4/  5 1016.6S
$$

LMZ867-665-643>646-211800-
LAKE MICHIGAN

STATION/POSITION TIME  TEMP    WIND        PRES    WAVE
                       AIR SEA DIR/SP/G            HT/PER
                 (UTC) (F)     (DEG/KT/KT) (MB)    (FT/S)
S GREEN BAY BUOY 1630   67 67   50/  8/ 10 1017.0R
N MID LAKE BUOY  1550   66 65   40/  6/  8 1017.4R   2/ 6
NORTHPORT PIER   1640   67     330/  7/  9 1016.9S
KEWAUNEE LAKESHO 1630   68      30/  3/  6 1016.5R
SHEBOYGAN LAKESH 1600   70      10/  7/  7 1016.4R
PORT WASHINGTON  1640   74      80/  2/  7 1017.6F
ATWATER BUOY     1509   68 67  260/  4/  6 1017.3S
MILWAUKEE LAKESH 1630   71        CALM       N/A
S MID LAKE BUOY  1550   71 69  290/  4/  4 1017.1R   1/ 3
KENOSHA   LAKESH 1600   74      30/  1/  4 1016.6
$$

TC  - TEMPERATURE IN CELSIUS
VSB - VISIBILITY IN STATUTE MILES
WCI - WIND CHILL INDEX
HX  - HEAT INDEX





USA.gov is the U.S. government's official web portal to all federal, state and local government web resources and services.